Regional Weather Roundup
Issued by NWS Cleveland, OH

Home | Current Version | Previous Version | Graphics & Text | Print | Product List | Glossary On
Versions: 1 2 3 4 5 6 7 8 9 10 11 12 13 14 15 16 17 18 19 20 21 22 23 24 25 26 27 28 29 30 31 32 33 34 35 36 37 38 39 40 41 42 43 44 45 46 47 48 49 50
000
ASUS41 KCLE 272000
RWRCLE
OHIO REGIONAL WEATHER ROUNDUP
NATIONAL WEATHER SERVICE WILMINGTON, OH
400 PM EDT TUE JUN 27 2017

NOTE: "FAIR" INDICATES FEW OR NO CLOUDS BELOW 12,000 FEET WITH NO
SIGNIFICANT WEATHER AND/OR OBSTRUCTIONS TO VISIBILITY.

OHZ001>008-015>018-024>027-034-035-043-044-272100-
   NORTHWEST OHIO

CITY           SKY/WX    TMP DP  RH WIND       PRES   REMARKS
DEFIANCE       PTSUNNY   69  45  41 W8        30.08F
FINDLAY        FAIR      72  45  37 W8        30.09F
TOLEDO EXPRESS FAIR      70  44  39 SW10      30.07F
TOLEDO EXEC    PTSUNNY   70  44  39 W6        30.08F
LIMA           PTSUNNY   68  44  42 W6        30.11F
$$

OHZ009>014-019>023-028>033-038-089-272100-
   NORTHEAST OHIO

CITY           SKY/WX    TMP DP  RH WIND       PRES   REMARKS
CLE-HOPKINS    FAIR      70  46  42 W13G21    30.10F
CLE-LAKEFRONT  FAIR      68  50  52 W14       30.07F
CUY CO. ARPT   MOSUNNY   68  52  56 W12       30.09F
LORAIN-ELYRIA  FAIR      69  42  37 NW13G18   30.09F
ASHTABULA      FAIR      65  49  56 W14G23    30.07F
AKRON-CANTON   PTSUNNY   69  45  41 NW12G18   30.09S
WOOSTER        NOT AVBL
MANSFIELD      PTSUNNY   70  44  39 W9        30.10F
YOUNGSTOWN     PTSUNNY   66  48  52 NW13      30.08S
$$

OHZ042-051>053-060>062-070>072-077>081-272100-
  SOUTHWEST OHIO

CITY           SKY/WX    TMP DP  RH WIND       PRES   REMARKS
CINC-COVINGTON PTSUNNY   71  50  47 N6        30.12F
CINC-LUNKEN    PTSUNNY   73  51  46 VRB3      30.12F
HAMILTON       PTSUNNY   72  52  49 VRB7      30.13F
DAYTON         NOT AVBL
WRIGHT-PAT AFB DRIZZLE   71  46  40 N7        30.12S
DAYTON GENERAL FAIR      72  47  40 CALM      30.11F
WILMINGTON     PTSUNNY   70  50  49 W6        30.12F
$$

OHZ036-037-039>041-045>050-054>059-063>069-073>076-082>088-272100-
  CENTRAL AND SOUTHEAST OHIO

CITY           SKY/WX    TMP DP  RH WIND       PRES   REMARKS
COLUMBUS       FAIR      71  50  47 W10       30.10F
OSU AIRPORT    PTSUNNY   69  48  47 NW7       30.10F
BOLTON FIELD   PTSUNNY   72  48  43 NW6       30.11F
RICKENBACK AFB NOT AVBL
NEWARK         FAIR      71  43  36 NW10      30.09F
MARION         FAIR      70  41  34 NW8       30.11F
LANCASTER      PTSUNNY   70  50  49 VRB7      30.11F
ZANESVILLE     PTSUNNY   71  48  43 VRB7      30.10F
NEW PHILLY     PTSUNNY   71  46  40 NW8       30.09F
$$




USA.gov is the U.S. government's official web portal to all federal, state and local government web resources and services.